This is the latest recevied weather packets stored in our database for station/object DH4SBM. If no packets are shown the sender has not sent any weather packets the latest 10 day(s).
| Time | Temp. | Humidity | Pressure | Rain* | Wind** | Luminosity | Snow |
|---|---|---|---|---|---|---|---|
| 1777965339 | 15.56° C | 78% | 1010.4 hPa | 0 mm | - | 359 W/m² | - |
| 1777964739 | 15.56° C | 80% | 1010.7 hPa | 0 mm | - | 445 W/m² | - |
| 1777964139 | 14.44° C | 82% | 1010.8 hPa | 0 mm | - | 383 W/m² | - |
| 1777963539 | 14.44° C | 83% | 1010.8 hPa | 0 mm | - | 281 W/m² | - |
| 1777962938 | 13.89° C | 84% | 1010.7 hPa | 0 mm | - | 318 W/m² | - |
| 1777962338 | 13.89° C | 84% | 1010.8 hPa | 0 mm | - | 104 W/m² | - |
| 1777961738 | 13.89° C | 84% | 1010.8 hPa | 0 mm | - | 118 W/m² | - |
| 1777961138 | 13.89° C | 84% | 1010.8 hPa | 0 mm | - | 67 W/m² | - |
| 1777960538 | 13.89° C | 84% | 1010.9 hPa | 0 mm | - | 70 W/m² | - |
| 1777959938 | 13.89° C | 84% | 1010.9 hPa | 0 mm | - | 91 W/m² | - |
| 1777959338 | 13.33° C | 85% | 1011 hPa | 0 mm | - | 69 W/m² | - |
| 1777958738 | 13.33° C | 86% | 1011.1 hPa | 0 mm | - | 67 W/m² | - |
| 1777958138 | 13.33° C | 86% | 1011.1 hPa | 0 mm | - | 62 W/m² | - |
| 1777957538 | 12.78° C | 87% | 1011 hPa | 0 mm | - | 42 W/m² | - |
| 1777956938 | 12.78° C | 87% | 1011.1 hPa | 0 mm | - | 146 W/m² | - |
| 1777956338 | 12.22° C | 87% | 1011 hPa | 0 mm | - | 113 W/m² | - |
| 1777955738 | 12.22° C | 87% | 1010.9 hPa | 0 mm | - | 51 W/m² | - |
| 1777955138 | 12.22° C | 86% | 1010.9 hPa | 0 mm | - | 26 W/m² | - |
| 1777954538 | 12.22° C | 86% | 1011 hPa | 0 mm | - | 16 W/m² | - |
| 1777953938 | 12.22° C | 86% | 1011 hPa | 0 mm | - | 5 W/m² | - |
| 1777953338 | 12.22° C | 86% | 1011 hPa | 0 mm | - | 0 W/m² | - |
| 1777952738 | 12.22° C | 85% | 1010.8 hPa | 0 mm | - | 0 W/m² | - |
| 1777952138 | 12.22° C | 85% | 1010.9 hPa | 0 mm | - | 0 W/m² | - |
| 1777951538 | 12.78° C | 84% | 1011.1 hPa | 0 mm | - | 0 W/m² | - |
| 1777950938 | 12.78° C | 83% | 1011.2 hPa | 0 mm | - | 0 W/m² | - |
* Rain latest hour (hover to see other rain measurements)
** Current wind speed in m/s (hover to see current wind gust speed)